Location: Bakov nad Jizerou
(50.4784°N, 14.9394°E)
Time: 09:05:36
(UTC+00:00)

Cosmos 1703 - Pass Details

Date: 16 June 2021
Orbit: 522 x 540 km, 82.5° (Epoch: 04 August)

Event Time Altitude Azimuth Distance (km) Brightness Sun altitude
Exits shadow 22:49:09 32° 190° (S) 930 3.9 -16.1°
Maximum altitude 22:50:54 89° 284° (WNW) 545 3.2 -16.1°
Drops below altitude 10° 22:54:53 10° 10° (N) 1,811 7.2 -16.1°
Sets 22:57:04 0° 11° (N) 2,710 8.5 -16.1°
